Meath Environmental Platform

Observations for Trim Patrick St

Time AQI Temp °C Hum % Pres Pa CO μg/m³ H₂S μg/m³ NO μg/m³ NO₂ μg/m³ O₃ μg/m³ SO₂ μg/m³ PM1 μg/m³ PM2.5 μg/m³ PM10 μg/m³
Saturday 1 August 2026
12:19 1 27.3 34 69,016 0 0.16 1.6 12.16 114.49 11.24 2.86 9 9.9
12:18 1 27.3 32 69,031 0 0 1.74 10.89 93.12 11.45 2 8.32 9.15
12:17 1 27.4 32 69,008 0 0 1.94 9.25 74 10.95 2.86 9.13 10.04
12:16 1 27.4 34 69,016 0 0 1.81 6.31 74.9 11.71 3.71 9.84 10.83
12:15 1 27.4 32 69,021 0 0 1.91 9.37 107.07 10.84 3.71 10.72 11.79
12:14 1 27.4 33 69,027 0 0 1.92 11.65 123.77 11.88 2.86 9.11 10.02
12:11 1 27.6 33 69,014 0 0 1.67 9.22 74.2 10.82 3.71 9.88 10.87
12:10 1 27.7 32 69,025 0 0 1.75 5.61 76.22 12.04 3.71 9.93 10.93
12:09 1 27.8 32 69,031 0 0 1.77 6.47 76.62 11.7 4.57 10.79 11.87
12:08 1 28 33 69,035 0 0 1.54 9.29 77.73 11.15 4.57 10.68 11.75
12:07 1 28.1 31 69,047 0 0 1.66 6.68 75.42 11.58 5.43 11.63 12.79
12:06 1 28.2 31 69,057 0 0 1.58 10.74 121.13 13.22 2.86 9.21 10.13
12:05 1 28.3 30 69,069 0 0 1.67 6.26 75.51 10.88 2.86 10.11 11.12
12:02 1 28.7 30 69,086 0 0 1.34 4.33 76.02 12.39 2 8.46 9.31
12:01 1 28.8 33 69,106 0 0 1.07 0.07 40.33 11.66 3.71 9.9 10.89
12:00 1 28.9 33 69,106 0 0 1.06 11.53 80.56 12.43 4.57 12.28 13.51
11:58 1 29.1 33 69,100 0 0 1.08 9.89 71.55 10.89 3.71 11.5 12.65
11:56 1 29.1 32 69,112 0 0 1.16 11.55 79.99 12.27 3.71 10.73 11.81
11:55 1 29.2 33 69,104 0 0 1.03 7.83 80.73 12.41 3.71 9.91 10.9
11:54 1 29.2 32 69,092 0 0 1.05 6.73 66.79 10.88 3.71 10.78 11.86